When you browse on this site, cookies collect data to enhance your experience and personalize the content and advertising you see.
Visit our Privacy Policy to learn more. By continuing to use the site, you agree to this use of cookies and data.
  • In Hungary
  • List of Countries
  • For 7 days
  • Water Temperature
  • Weather Map
  • News
  • Weather Widgets
  • user-avatar
    Login

    Hourly Weather Czarnowo

    Today, 10 December, Tuesday

    Time Temperature Precipitation Wind Pressure Humidity
    00:00 +3°C° 0 mm 6 mps 749 mmHg 82%
    01:00 +2°C° 0 mm 6 mps 751 mmHg 81%
    02:00 +2°C° 0 mm 6 mps 752 mmHg 79%
    03:00 +1°C° 0 mm 6 mps 752 mmHg 78%
    04:00 +1°C° 0 mm 6 mps 753 mmHg 77%
    05:00 +1°C° 0 mm 6 mps 754 mmHg 75%
    06:00 +1°C° 0 mm 6 mps 756 mmHg 73%
    07:00 -1°C° 0 mm 6 mps 757 mmHg 72%
    08:00 +1°C° 0 mm 6 mps 758 mmHg 70%
    09:00 +1°C° 0 mm 6 mps 759 mmHg 69%
    10:00 +1°C° 0 mm 5 mps 759 mmHg 67%
    11:00 +2°C° 0 mm 5 mps 760 mmHg 65%
    12:00 +3°C° 0 mm 4 mps 761 mmHg 63%
    13:00 +4°C° 0 mm 3 mps 761 mmHg 62%
    14:00 +3°C° 0 mm 3 mps 761 mmHg 70%
    15:00 +2°C° 0 mm 3 mps 761 mmHg 77%
    16:00 +2°C° 0 mm 2 mps 761 mmHg 85%
    17:00 +1°C° 0 mm 2 mps 762 mmHg 87%
    18:00 +1°C° 0 mm 2 mps 762 mmHg 89%
    19:00 +1°C° 0 mm 2 mps 762 mmHg 91%
    20:00 0°C° 0 mm 3 mps 761 mmHg 92%
    21:00 0°C° 0 mm 3 mps 761 mmHg 92%
    22:00 0°C° 0 mm 3 mps 760 mmHg 92%
    23:00 -1°C° 0 mm 4 mps 760 mmHg 91%

    Tomorrow, 11 December, Wednesday

    Time Temperature Precipitation Wind Pressure Humidity
    00:00 -1°C° 0 mm 4 mps 760 mmHg 89%
    01:00 -1°C° 0 mm 5 mps 759 mmHg 88%
    02:00 -1°C° 0 mm 5 mps 758 mmHg 85%
    03:00 -2°C° 0 mm 6 mps 757 mmHg 82%
    04:00 -2°C° 0 mm 6 mps 756 mmHg 80%
    05:00 -2°C° 0 mm 6 mps 756 mmHg 78%
    06:00 -2°C° 0 mm 6 mps 756 mmHg 77%
    07:00 -2°C° 0 mm 6 mps 756 mmHg 76%
    08:00 -2°C° 0 mm 6 mps 755 mmHg 74%
    09:00 -2°C° 0 mm 6 mps 755 mmHg 73%
    10:00 -2°C° 0 mm 6 mps 754 mmHg 72%
    11:00 -1°C° 0 mm 6 mps 754 mmHg 69%
    12:00 +1°C° 0 mm 5 mps 754 mmHg 67%
    13:00 +1°C° 0 mm 5 mps 753 mmHg 65%
    14:00 +1°C° 0.1 mm 4 mps 753 mmHg 67%
    15:00 +1°C° 0.1 mm 4 mps 752 mmHg 69%
    16:00 +1°C° 0.1 mm 3 mps 752 mmHg 71%
    17:00 +1°C° 0.3 mm 3 mps 751 mmHg 73%
    18:00 +1°C° 0.3 mm 3 mps 751 mmHg 75%
    19:00 +1°C° 0.3 mm 3 mps 751 mmHg 77%
    20:00 +1°C° 0.2 mm 3 mps 751 mmHg 76%
    21:00 +1°C° 0.2 mm 3 mps 750 mmHg 76%
    22:00 0°C° 0.2 mm 4 mps 750 mmHg 76%
    23:00 +1°C° 0.1 mm 3 mps 749 mmHg 77%

    Day after tomorrow, 12 December, Thursday

    Time Temperature Precipitation Wind Pressure Humidity
    00:00 +1°C° 0.1 mm 3 mps 749 mmHg 79%
    01:00 +1°C° 0.1 mm 3 mps 749 mmHg 80%
    02:00 0°C° 0 mm 3 mps 748 mmHg 78%
    03:00 -1°C° 0 mm 4 mps 747 mmHg 75%
    04:00 -1°C° 0 mm 4 mps 747 mmHg 73%
    05:00 0°C° 0 mm 3 mps 747 mmHg 76%
    06:00 0°C° 0 mm 3 mps 747 mmHg 79%
    07:00 0°C° 0 mm 3 mps 747 mmHg 82%
    08:00 +1°C° 0.1 mm 3 mps 747 mmHg 85%
    09:00 +1°C° 0.1 mm 3 mps 747 mmHg 87%
    10:00 +1°C° 0.1 mm 3 mps 746 mmHg 90%
    11:00 +2°C° 0.1 mm 3 mps 746 mmHg 92%
    12:00 +2°C° 0.1 mm 3 mps 746 mmHg 93%
    13:00 +2°C° 0.1 mm 3 mps 746 mmHg 95%
    14:00 +2°C° 0.2 mm 3 mps 746 mmHg 94%
    15:00 +3°C° 0.2 mm 2 mps 746 mmHg 93%
    16:00 +3°C° 0.2 mm 2 mps 745 mmHg 92%
    17:00 +3°C° 0 mm 2 mps 745 mmHg 93%
    18:00 +3°C° 0 mm 2 mps 745 mmHg 93%
    19:00 +2°C° 0 mm 3 mps 745 mmHg 94%
    20:00 +2°C° 0.1 mm 3 mps 745 mmHg 94%
    21:00 +2°C° 0.1 mm 3 mps 744 mmHg 95%
    22:00 +2°C° 0.1 mm 3 mps 744 mmHg 95%
    23:00 +1°C° 0.1 mm 4 mps 743 mmHg 93%

    13 December, Friday

    Time Temperature Precipitation Wind Pressure Humidity
    00:00 +1°C° 0.1 mm 4 mps 742 mmHg 90%
    01:00 +1°C° 0.1 mm 4 mps 741 mmHg 88%
    02:00 0°C° 0 mm 4 mps 740 mmHg 89%
    03:00 0°C° 0 mm 4 mps 740 mmHg 89%
    04:00 0°C° 0 mm 4 mps 739 mmHg 90%
    05:00 -1°C° 0 mm 5 mps 738 mmHg 89%
    06:00 -1°C° 0 mm 5 mps 737 mmHg 88%
    07:00 -2°C° 0 mm 5 mps 737 mmHg 87%
    08:00 -3°C° 0 mm 6 mps 736 mmHg 82%
    09:00 -2°C° 0 mm 6 mps 736 mmHg 78%
    10:00 -2°C° 0 mm 6 mps 736 mmHg 73%
    11:00 -1°C° 0 mm 6 mps 735 mmHg 71%
    12:00 -1°C° 0 mm 6 mps 735 mmHg 69%
    13:00 +1°C° 0 mm 6 mps 735 mmHg 66%
    14:00 +1°C° 0 mm 5 mps 735 mmHg 71%
    15:00 0°C° 0 mm 5 mps 735 mmHg 77%
    16:00 0°C° 0 mm 5 mps 735 mmHg 82%
    17:00 0°C° 0 mm 5 mps 736 mmHg 80%
    18:00 0°C° 0 mm 4 mps 736 mmHg 78%
    19:00 0°C° 0 mm 4 mps 737 mmHg 77%
    20:00 -1°C° 0 mm 4 mps 737 mmHg 78%
    21:00 -1°C° 0 mm 4 mps 737 mmHg 80%
    22:00 -1°C° 0 mm 4 mps 737 mmHg 82%
    23:00 -1°C° 0 mm 4 mps 737 mmHg 82%

    14 December, Saturday

    Time Temperature Precipitation Wind Pressure Humidity
    00:00 -1°C° 0 mm 4 mps 737 mmHg 83%
    01:00 -1°C° 0 mm 4 mps 738 mmHg 84%
    02:00 -1°C° 0 mm 4 mps 737 mmHg 87%
    03:00 -1°C° 0 mm 5 mps 737 mmHg 89%
    04:00 0°C° 0 mm 5 mps 737 mmHg 92%
    05:00 0°C° 0 mm 5 mps 737 mmHg 91%
    06:00 +1°C° 0 mm 5 mps 737 mmHg 91%
    07:00 +2°C° 0 mm 5 mps 737 mmHg 91%
    08:00 +2°C° 0.1 mm 6 mps 737 mmHg 87%
    09:00 +3°C° 0.1 mm 6 mps 737 mmHg 84%
    10:00 +3°C° 0.1 mm 7 mps 737 mmHg 81%
    11:00 +3°C° 0.4 mm 7 mps 737 mmHg 83%
    12:00 +2°C° 0.4 mm 8 mps 736 mmHg 86%
    13:00 +2°C° 0.4 mm 9 mps 736 mmHg 88%
    14:00 +2°C° 0.2 mm 8 mps 737 mmHg 82%
    15:00 +4°C° 0.2 mm 8 mps 737 mmHg 77%
    16:00 +4°C° 0.2 mm 7 mps 738 mmHg 71%
    17:00 +3°C° 0 mm 7 mps 739 mmHg 70%
    18:00 +3°C° 0 mm 6 mps 739 mmHg 69%
    19:00 +2°C° 0 mm 6 mps 740 mmHg 68%
    20:00 +2°C° 0 mm 7 mps 741 mmHg 71%
    21:00 +2°C° 0 mm 7 mps 741 mmHg 74%
    22:00 +2°C° 0 mm 7 mps 741 mmHg 78%
    23:00 +2°C° 0.1 mm 7 mps 742 mmHg 78%

    15 December, Sunday

    Time Temperature Precipitation Wind Pressure Humidity
    00:00 0°C° 0.1 mm 7 mps 743 mmHg 77%
    01:00 0°C° 0.1 mm 7 mps 743 mmHg 77%
    02:00 0°C° 0 mm 7 mps 744 mmHg 76%
    03:00 0°C° 0 mm 7 mps 745 mmHg 74%
    04:00 0°C° 0 mm 7 mps 745 mmHg 72%
    05:00 0°C° 0 mm 7 mps 746 mmHg 72%
    06:00 0°C° 0 mm 7 mps 746 mmHg 72%
    07:00 -1°C° 0 mm 6 mps 746 mmHg 71%
    08:00 +1°C° 0 mm 6 mps 747 mmHg 74%
    09:00 +1°C° 0 mm 6 mps 747 mmHg 76%
    10:00 0°C° 0 mm 7 mps 747 mmHg 79%
    11:00 +2°C° 0 mm 7 mps 746 mmHg 79%
    12:00 +2°C° 0 mm 8 mps 746 mmHg 79%
    13:00 +4°C° 0 mm 8 mps 745 mmHg 79%
    14:00 +4°C° 0.2 mm 8 mps 745 mmHg 78%
    15:00 +5°C° 0.2 mm 8 mps 746 mmHg 77%
    16:00 +5°C° 0.2 mm 8 mps 746 mmHg 77%
    17:00 +4°C° 0 mm 7 mps 747 mmHg 76%
    18:00 +3°C° 0 mm 6 mps 748 mmHg 75%
    19:00 +2°C° 0 mm 6 mps 748 mmHg 74%
    20:00 +2°C° 0 mm 6 mps 749 mmHg 74%
    21:00 +2°C° 0 mm 6 mps 750 mmHg 73%
    22:00 +2°C° 0 mm 6 mps 750 mmHg 73%
    23:00 +2°C° 0 mm 6 mps 750 mmHg 75%
    Show more